| time (UTC) | temp F | wind direction | speed knots | gust knots | rain 1hr in | rain 24hr in | rain mn in | humidity % | barometer mb |
| 20260506124517 | 40 | 304 | 0.0 | 0.0 | 0.00 | 0.00 | 0.00 | 84 | 1014.3 |
| 20260506123058 | 39 | 304 | 0.0 | 0.0 | 0.00 | 0.00 | 0.00 | 83 | 1014.1 |
| 20260506121556 | 39 | 304 | 0.0 | 0.0 | 0.00 | 0.00 | 0.00 | 83 | 1013.9 |
| 20260506120043 | 40 | 304 | 0.0 | 0.0 | 0.00 | 0.00 | 0.00 | 83 | 1013.8 |
| 20260506114545 | 40 | 304 | 0.0 | 0.0 | 0.00 | 0.00 | 0.00 | 82 | 1013.7 |
| 20260506113040 | 40 | 304 | 0.0 | 0.0 | 0.00 | 0.00 | 0.00 | 82 | 1013.7 |
| 20260506111540 | 40 | 304 | 0.0 | 0.0 | 0.00 | 0.00 | 0.00 | 81 | 1013.6 |
| 20260506110046 | 40 | 304 | 0.0 | 0.0 | 0.00 | 0.00 | 0.00 | 81 | 1013.6 |
| 20260506104537 | 40 | 304 | 0.0 | 0.0 | 0.00 | 0.00 | 0.00 | 81 | 1013.6 |
| 20260506103036 | 40 | 304 | 0.0 | 0.0 | 0.00 | 0.00 | 0.00 | 80 | 1013.6 |
| 20260506101548 | 41 | 304 | 0.0 | 0.0 | 0.00 | 0.00 | 0.00 | 80 | 1013.5 |
| 20260506100014 | 41 | 304 | 0.0 | 0.0 | 0.00 | 0.00 | 0.00 | 79 | 1013.3 |
| 20260506094516 | 41 | 304 | 0.0 | 0.0 | 0.00 | 0.00 | 0.00 | 78 | 1013.4 |
| 20260506093103 | 42 | 304 | 0.0 | 0.0 | 0.00 | 0.00 | 0.00 | 77 | 1013.3 |
| 20260506091553 | 42 | 304 | 0.0 | 0.0 | 0.00 | 0.00 | 0.00 | 76 | 1013.3 |
| 20260506090036 | 43 | 304 | 0.0 | 0.0 | 0.00 | 0.00 | 0.00 | 75 | 1013.2 |
| 20260506084533 | 43 | 304 | 0.0 | 0.0 | 0.00 | 0.00 | 0.00 | 78 | 1013.2 |
| 20260506083014 | 43 | 304 | 0.0 | 0.0 | 0.00 | 0.00 | 0.00 | 78 | 1013.0 |
| 20260506081512 | 42 | 304 | 0.0 | 0.0 | 0.00 | 0.00 | 0.00 | 79 | 1012.7 |
| 20260506073038 | 43 | 304 | 0.0 | 0.0 | 0.00 | 0.00 | 0.00 | 78 | 1012.8 |
| 20260506071530 | 44 | 304 | 0.0 | 0.0 | 0.00 | 0.00 | 0.00 | 76 | 1012.6 |
| 20260506061545 | 47 | 304 | 0.0 | 0.0 | 0.00 | 0.00 | 0.00 | 70 | 1012.1 |
| 20260506044535 | 51 | 304 | 0.0 | 0.0 | 0.00 | 0.00 | 0.00 | 66 | 1011.0 |
| 20260506043015 | 52 | 304 | 0.0 | 0.0 | 0.00 | 0.00 | 0.00 | 64 | 1011.0 |
| 20260506041524 | 53 | 304 | 0.0 | 0.0 | 0.00 | 0.00 | 0.00 | 61 | 1010.8 |
| 20260506040108 | 55 | 304 | 0.0 | 0.0 | 0.00 | 0.00 | 0.00 | 58 | 1010.8 |
| 20260506034548 | 57 | 304 | 0.0 | 0.0 | 0.00 | 0.00 | 0.15 | 52 | 1010.6 |
| 20260506033049 | 59 | 304 | 0.0 | 0.0 | 0.00 | 0.00 | 0.15 | 46 | 1010.4 |
| 20260506031531 | 60 | 304 | 0.0 | 0.0 | 0.00 | 0.00 | 0.15 | 44 | 1010.1 |
| 20260506030033 | 61 | 304 | 0.0 | 0.0 | 0.00 | 0.00 | 0.15 | 42 | 1009.8 |
| 20260506024513 | 63 | 304 | 0.0 | 0.0 | 0.00 | 0.00 | 0.15 | 40 | 1009.5 |
| 20260506023012 | 65 | 304 | 0.0 | 0.0 | 0.00 | 0.00 | 0.15 | 37 | 1009.4 |
| 20260506021557 | 66 | 304 | 0.0 | 0.0 | 0.00 | 0.00 | 0.15 | 36 | 1009.3 |
| 20260506020054 | 68 | 304 | 0.9 | 0.0 | 0.00 | 0.00 | 0.15 | 33 | 1009.2 |
| 20260506014545 | 68 | 304 | 1.7 | 0.0 | 0.00 | 0.00 | 0.15 | 33 | 1009.0 |
| 20260506013039 | 68 | 304 | 1.7 | 0.0 | 0.00 | 0.00 | 0.15 | 34 | 1009.0 |
| 20260506011518 | 67 | 304 | 0.9 | 0.0 | 0.00 | 0.00 | 0.15 | 37 | 1008.9 |
| 20260506010024 | 69 | 304 | 0.9 | 0.0 | 0.00 | 0.00 | 0.15 | 38 | 1008.9 |
| 20260506004600 | 68 | 304 | 0.9 | 0.0 | 0.00 | 0.00 | 0.15 | 39 | 1009.0 |
| 20260506003100 | 69 | 304 | 0.9 | 0.0 | 0.00 | 0.00 | 0.15 | 38 | 1008.9 |
| 20260506001604 | 67 | 304 | 0.0 | 0.0 | 0.00 | 0.00 | 0.15 | 39 | 1008.9 |
| 20260506000046 | 66 | 304 | 0.0 | 0.0 | 0.00 | 0.00 | 0.15 | 44 | 1009.1 |
| 20260505234524 | 67 | 304 | 0.0 | 0.0 | 0.00 | 0.00 | 0.15 | 41 | 1009.1 |
| 20260505233123 | 68 | 304 | 0.0 | 0.0 | 0.00 | 0.00 | 0.15 | 39 | 1009.2 |
| 20260505231506 | 69 | 304 | 0.9 | 0.0 | 0.00 | 0.00 | 0.15 | 36 | 1009.2 |
| 20260505230005 | 68 | 304 | 0.9 | 0.0 | 0.00 | 0.00 | 0.15 | 39 | 1009.3 |
| 20260505224549 | 69 | 304 | 1.7 | 0.0 | 0.00 | 0.00 | 0.15 | 35 | 1009.4 |
| 20260505223055 | 69 | 305 | 1.7 | 0.0 | 0.00 | 0.00 | 0.15 | 36 | 1009.5 |
| 20260505221530 | 68 | 305 | 0.0 | 0.0 | 0.00 | 0.00 | 0.15 | 38 | 1009.7 |
| 20260505220037 | 68 | 306 | 0.9 | 0.0 | 0.00 | 0.00 | 0.15 | 34 | 1009.7 |
| 20260505214516 | 68 | 306 | 2.6 | 0.0 | 0.00 | 0.00 | 0.15 | 36 | 1009.7 |
| 20260505213009 | 70 | 303 | 2.6 | 0.0 | 0.00 | 0.00 | 0.15 | 41 | 1009.8 |
| 20260505211558 | 68 | 303 | 2.6 | 0.0 | 0.00 | 0.00 | 0.15 | 37 | 1009.9 |
| 20260505210056 | 68 | 298 | 3.5 | 0.0 | 0.00 | 0.00 | 0.15 | 35 | 1010.1 |
| 20260505204536 | 69 | 335 | 3.5 | 0.0 | 0.00 | 0.00 | 0.15 | 35 | 1010.1 |
| 20260505203037 | 67 | 307 | 2.6 | 0.0 | 0.00 | 0.00 | 0.15 | 36 | 1010.1 |
| 20260505201517 | 66 | 310 | 2.6 | 0.0 | 0.00 | 0.00 | 0.15 | 39 | 1010.3 |
| 20260505200014 | 67 | 310 | 0.0 | 0.0 | 0.00 | 0.00 | 0.15 | 39 | 1010.3 |
| 20260505194558 | 66 | 310 | 0.0 | 0.0 | 0.00 | 0.00 | 0.15 | 39 | 1010.3 |
| 20260505193054 | 68 | 310 | 0.9 | 0.0 | 0.00 | 0.00 | 0.15 | 36 | 1010.4 |
| 20260505191548 | 67 | 310 | 2.6 | 0.0 | 0.00 | 0.00 | 0.15 | 37 | 1010.5 |
| 20260505190039 | 66 | 292 | 3.5 | 0.0 | 0.00 | 0.00 | 0.15 | 39 | 1010.5 |
| 20260505184521 | 67 | 319 | 2.6 | 0.0 | 0.00 | 0.00 | 0.15 | 39 | 1010.5 |
| 20260505183026 | 67 | 351 | 1.7 | 0.0 | 0.00 | 0.00 | 0.15 | 37 | 1010.5 |
| 20260505181600 | 66 | 289 | 1.7 | 0.0 | 0.00 | 0.00 | 0.15 | 42 | 1010.5 |
| 20260505180056 | 66 | 327 | 0.0 | 0.0 | 0.00 | 0.00 | 0.15 | 42 | 1010.6 |
| 20260505174541 | 65 | 321 | 0.9 | 0.0 | 0.00 | 0.00 | 0.15 | 41 | 1010.7 |
| 20260505173040 | 64 | 317 | 0.9 | 0.0 | 0.00 | 0.00 | 0.15 | 44 | 1010.7 |
| 20260505171527 | 64 | 103 | 0.0 | 0.0 | 0.00 | 0.00 | 0.15 | 43 | 1010.8 |
| 20260505170016 | 63 | 103 | 0.0 | 0.0 | 0.00 | 0.00 | 0.15 | 46 | 1010.7 |
| 20260505164555 | 62 | 113 | 0.9 | 0.0 | 0.00 | 0.00 | 0.15 | 49 | 1010.8 |
| 20260505163058 | 62 | 128 | 0.0 | 0.0 | 0.00 | 0.00 | 0.15 | 51 | 1010.7 |
| 20260505161534 | 60 | 128 | 0.0 | 0.0 | 0.00 | 0.00 | 0.15 | 54 | 1010.7 |
| 20260505153006 | 57 | 164 | 0.0 | 0.0 | 0.00 | 0.00 | 0.15 | 62 | 1010.7 |
| 20260505151544 | 55 | 163 | 0.0 | 0.0 | 0.00 | 0.00 | 0.15 | 69 | 1010.7 |